This demonstration page uses our WeatherBlox Daily Observations layout. Learn more.

39.92423, -83.80882

Hourly Observations for June 23, 2016

Temp ( °F °C ) Dew Point ( °F °C ) Humidity (%) Winds ( mph kmh ) Pressure ( in mb ) Visibility ( mi km ) Precip ( " mm )
12:03 am 00:03 Mostly Cloudy 73 23 72 22 94 94 SSE 14 22 29.88 1012 10 16.0934 0 0
12:56 am 00:56 Mostly Clear 73 22.7 71 21.6 94 94 S 12 19 29.86 1011 10 16.0934 0 0
1:06 am 01:06 Partly Cloudy 73 23 72 22 94 94 SSE 8 13 29.85 1011 10 16.0934 0 0
1:56 am 01:56 Clear 74 23.3 73 22.7 96 96 S 7 11 29.85 1011 10 16.0934 0 0
2:37 am 02:37 Clear with Nearby Thunderstorms 75 24 73 23 94 94 SW 10 17 29.83 1010 10 16.0934 0 0
2:56 am 02:56 Mostly Cloudy with Heavy Thunderstorms 75 23.8 73 22.7 94 94 WSW 28 44 29.86 1011 2 3.21868 0.07 1.778
3:08 am 03:08 Cloudy with Heavy Thunderstorms 72 22 70 21 94 94 SSW 15 24 29.83 1010 2.5 4.02335 0.05 1.27
3:11 am 03:11 Mostly Cloudy with Thunderstorms 72 22 70 21 94 94 SW 14 22 29.85 1011 3 4.82802 0.06 1.524
3:18 am 03:18 Cloudy with Light Thunderstorms 70 21 68 20 94 94 S 14 22 29.85 1011 6 9.65604 0.06 1.524
3:25 am 03:25 Cloudy with Light Thunderstorms 70 21 68 20 94 94 S 5 7 29.8 1009 6 9.65604 0.07 1.778
3:56 am 03:56 Mostly Clear with Thunderstorms 68 20 68 20 100 100 S 10 17 29.86 1011 10 16.0934 0.08 2.032
4:10 am 04:10 Mostly Cloudy 68 20 66 19 94 94 S 6 9 29.85 1011 10 16.0934 0 0.0254
4:34 am 04:34 Cloudy with Light Rain 68 20 66 19 94 94 S 12 19 29.85 1011 7 11.26538 0.02 0.508
4:56 am 04:56 Cloudy with Light Thunderstorms 68 20 67 19.4 96 96 S 7 11 29.85 1011 7 11.26538 0.04 1.016
5:30 am 05:30 Cloudy with Mist and Fog 68 20 68 20 100 100 VRB 3 6 29.8 1009 6 9.65604 0.04 1.016
5:39 am 05:39 Cloudy 68 20 68 20 100 100 NNW 17 28 29.85 1011 9 14.48406 0.04 1.016
5:41 am 05:41 Cloudy 68 20 68 20 100 100 NNW 12 19 29.85 1011 10 16.0934 0.04 1.016
5:56 am 05:56 Mostly Cloudy 68 20 68 20 100 100 WSW 7 11 29.85 1011 10 16.0934 0.04 1.016
6:04 am 06:04 Partly Cloudy 70 21 70 21 100 100 Calm 29.83 1010 10 16.0934 0 0
6:56 am 06:56 Mostly Cloudy 69 20.5 69 20.5 100 100 S 3 6 29.85 1011 10 16.0934 0 0
7:56 am 07:56 Cloudy with Nearby Thunderstorms 70 21.1 69 20.5 96 96 SW 7 11 29.86 1011 10 16.0934 0 0.0254
8:16 am 08:16 Mostly Cloudy 70 21 70 21 100 100 S 7 11 29.85 1011 10 16.0934 0 0
8:56 am 08:56 Cloudy 71 21.6 69 20.5 93 93 S 6 9 29.85 1011 10 16.0934 0 0
9:56 am 09:56 Cloudy 73 22.7 70 21.1 91 91 WSW 7 11 29.86 1011 10 16.0934 0 0
10:18 am 10:18 Cloudy 73 23 72 22 94 94 SSW 7 11 29.85 1011 10 16.0934 0 0
10:56 am 10:56 Mostly Cloudy 75 23.8 73 22.7 94 94 SSW 6 9 29.85 1011 10 16.0934 0 0
11:29 am 11:29 Cloudy 79 26 75 24 89 89 SW 6 9 29.83 1010 10 16.0934 0 0
11:56 am 11:56 Cloudy 81 27.2 76 24.4 85 85 WSW 10 17 29.84 1011 10 16.0934 0 0
12:56 pm 12:56 Mostly Cloudy 83 28.3 78 25.5 85 85 SSW 8 13 29.84 1010 10 16.0934 0 0
1:22 pm 13:22 Partly Cloudy 84 29 79 26 84 84 WSW 10 17 29.8 1009 10 16.0934 0 0
1:56 pm 13:56 Mostly Sunny 86 30 77 25 75 75 W 16 26 29.83 1010 10 16.0934 0 0
2:56 pm 14:56 Partly Cloudy with Thunderstorms 84 28.8 76 24.4 77 77 WNW 9 15 29.82 1010 10 16.0934 0 0
3:38 pm 15:38 Mostly Cloudy 88 31 75 24 66 66 WNW 14 22 29.77 1008 10 16.0934 0 0
3:45 pm 15:45 Mostly Cloudy with Nearby Thunderstorms 88 31 75 24 66 66 WNW 15 24 29.8 1009 10 16.0934 0 0
3:56 pm 15:56 Mostly Cloudy with Nearby Thunderstorms 89 31.6 74 23.3 61 61 NNW 16 26 29.82 1010 10 16.0934 0 0
4:05 pm 16:05 Mostly Cloudy 88 31 73 23 62 62 WNW 12 19 29.77 1008 10 16.0934 0 0
4:56 pm 16:56 Sunny 89 31.6 73 22.7 59 59 NNW 20 31 29.8 1009 10 16.0934 0 0
5:56 pm 17:56 Partly Cloudy 87 30.5 73 22.7 63 63 NW 15 24 29.83 1010 10 16.0934 0 0
6:56 pm 18:56 Mostly Sunny 85 29.4 72 22.2 65 65 NNW 14 22 29.84 1011 10 16.0934 0 0
7:56 pm 19:56 Sunny 81 27.2 71 21.6 72 72 NNE 10 17 29.89 1012 10 16.0934 0 0
8:56 pm 20:56 Sunny 77 25 70 21.1 79 79 NE 9 15 29.9 1013 10 16.0934 0 0
9:56 pm 21:56 Clear 73 22.7 69 20.5 87 87 NE 10 17 29.91 1013 10 16.0934 0 0
10:56 pm 22:56 Clear 69 20.5 69 20.5 100 100 NE 8 13 29.93 1013 10 16.0934 0 0
11:56 pm 23:56 Clear 68 20 68 20 100 100 ENE 3 6 29.93 1013 10 16.0934 0 0

Powered by AerisWeather